Weather in Zhongli

Taiwan     24°57′57″N   121°13′29″E
temp.,
°C
wind,
m/s
gust,
m/s
humid.,
%
clouds,
%
prec.,
mm/h
press.,
hPa
HPBL,
m
22 june, tue
tue2223:00+28wsw5971100 0.6 1004675
02:00+28sw4871100 1.1 1002626
05:00+28sw3870100 0.1 1003633
08:00+28wsw477189 1.0 1004722
11:00+28w81273100 1.0 1004909
14:00+24n3591100 4.4 1005513
17:00+24nnw1294100 7.3 1005306
20:00+24ne2498100 52.8 1006282
23 june, wed
wed2323:00+24ssw2692100 18.9 1007500
02:00+24w3592100 19.2 1006402
05:00+24wnw1393100 0.5 1007297
08:00+24ne2290100 1.0 1008310
11:00+25ne3486100 0.4 1009392
14:00+24ene3785100 0.9 1008421
17:00+24ene3788100 0.6 1007345
20:00+24ene498798 0.7 1008406
24 june, thu
thu2423:00+24ene488653 0.0 1007361
02:00+24ene3786100 0.0 1005303
05:00+24ese248492 0.0 1006173
08:00+27e337049 0.0 1007574
11:00+29n2264100 0.3 10071032
14:00+26ne268099 1.7 1006510
17:00+27ene357461 0.4 1005602
20:00+26ene3576100 0.4 1006264
25 june, fri
fri2523:00+25se2278100 0.0 1007103
02:00+25sse1280100 0.0 100680
05:00+25sse1282100 0.2 100670
08:00+27e1172100 0.3 1007428
11:00+31nne336187 0.3 10061186
14:00+29n446672 1.8 1005943
17:00+29nne2368100 0.6 1004734
20:00+28ese1175100 0.7 1005205
26 june, sat
sat2623:00+26ssw2585100 0.8 1006332
02:00+26s1288100 1.8 1005265
05:00+25ese2388100 0.1 1005110
08:00+28ese117294 0.1 1006376
11:00+30wsw4564100 0.1 10061037
14:00+30w5765100 0.7 10041022
17:00+29wsw357378 2.4 1004922
20:00+27sse138897 6.3 1005130